Weather History for San Antonio, TX

Change the Weather History Date:

Saturday, June 23, 2012

  Actual Average Record
Temperature  
Mean Temperature 85 °F 83 °F  
Max Temperature 96 °F 93 °F 102 °F (1990)
Min Temperature 73 °F 74 °F 63 °F (1920)
Degree Days  
Heating Degree Days 0 0  
Month to date heating degree days 0 0  
Since 1 June heating degree days 0 0  
Since 1 July heating degree days 1130 1496  
Cooling Degree Days 20 18  
Month to date cooling degree days 440 393  
Year to date cooling degree days 1296 1022  
Since 1 June cooling degree days 440 393  
Growing Degree Days 34 (Base 50)    
Moisture  
Dew Point 63 °F    
Average Humidity 53    
Maximum Humidity 79    
Minimum Humidity 27    
Precipitation  
Precipitation 0.00 in 0.14 in 2.93 in (1892)
Month to date precipitation 0.11 3.26  
Year to date precipitation 22.85 15.23  
Snow  
Snow 0.00 in - - ()
Month to date snowfall 0.0  
Since 1 June snowfall 0.0  
Since 1 July snowfall T  
Snow Depth 0.00 in    
Sea Level Pressure  
Sea Level Pressure 29.84 in    
Wind  
Wind Speed 5 mph (SE)    
Max Wind Speed 17 mph    
Max Gust Speed 20 mph    
Visibility 10 miles    
Events      
T = Trace of Precipitation, MM = Missing Value Source: NWS Daily Summary

Daily Weather History Graph

Daily Weather History Graph

Search for Another Location

Airport:

Trip Planner

Search our weather history database for the weather conditions in past years. The results will help you decide how hot, cold, wet, or windy it might be!

Date:

Astronomy

Jun. 23, 2012 Rise Set
Actual Time 6:35 AM CDT 8:37 PM CDT
Civil Twilight 6:07 AM CDT 9:04 PM CDT
Nautical Twilight 5:34 AM CDT 9:37 PM CDT
Astronomical Twilight 4:59 AM CDT 10:13 PM CDT
Moon 10:21 AM CDT (6/23) 11:26 PM CDT (6/23)
Length of Visible Light 14h 56m
Length of Day
14h 02m
Waxing Crescent, 16% of the Moon is Illuminated
Jun 23
Waxing Crescent
Jun 26
First Quarter
Jul 3
Full
Jul 10
Last Quarter
Jul 18
New

Hourly Weather History & Observations

Time (CDT) Temp. Heat Index Dew Point Humidity Pressure Visibility Wind Dir Wind Speed Gust Speed Precip Events Conditions
12:53 AM 80.1 °F 82.1 °F 66.0 °F 62% 29.83 in 10.0 mi Calm Calm - N/A   Clear
1:53 AM 81.0 °F 82.5 °F 64.0 °F 56% 29.83 in 10.0 mi SSW 6.9 mph - N/A   Clear
2:53 AM 78.1 °F - 64.0 °F 62% 29.83 in 10.0 mi West 3.5 mph - N/A   Clear
3:53 AM 78.1 °F - 64.0 °F 62% 29.82 in 10.0 mi Calm Calm - N/A   Mostly Cloudy
4:53 AM 77.0 °F - 66.0 °F 69% 29.83 in 10.0 mi Calm Calm - N/A   Mostly Cloudy
5:53 AM 75.9 °F - 66.0 °F 71% 29.83 in 10.0 mi WNW 3.5 mph - N/A   Scattered Clouds
6:53 AM 73.9 °F - 66.0 °F 76% 29.85 in 10.0 mi Calm Calm - N/A   Scattered Clouds
7:53 AM 77.0 °F - 66.0 °F 69% 29.86 in 10.0 mi Calm Calm - N/A   Scattered Clouds
8:53 AM 81.0 °F 82.5 °F 64.0 °F 56% 29.88 in 10.0 mi Calm Calm - N/A   Scattered Clouds
9:53 AM 84.9 °F 85.4 °F 62.1 °F 46% 29.88 in 10.0 mi Calm Calm - N/A   Mostly Cloudy
10:53 AM 87.1 °F 88.9 °F 64.9 °F 48% 29.88 in 10.0 mi SE 5.8 mph - N/A   Scattered Clouds
11:53 AM 89.1 °F 91.0 °F 64.9 °F 45% 29.88 in 10.0 mi Variable 4.6 mph - N/A   Scattered Clouds
12:53 PM 91.0 °F 93.0 °F 64.9 °F 42% 29.87 in 10.0 mi ESE 5.8 mph - N/A   Mostly Cloudy
1:53 PM 91.9 °F 93.3 °F 64.0 °F 39% 29.85 in 10.0 mi Variable 3.5 mph - N/A   Scattered Clouds
2:53 PM 93.9 °F 93.2 °F 59.0 °F 31% 29.84 in 10.0 mi Calm Calm - N/A   Partly Cloudy
3:53 PM 95.0 °F 94.4 °F 59.0 °F 30% 29.82 in 10.0 mi East 5.8 mph - N/A   Partly Cloudy
4:53 PM 96.1 °F 95.2 °F 57.9 °F 28% 29.81 in 10.0 mi Variable 3.5 mph - N/A   Partly Cloudy
5:53 PM 95.0 °F 94.8 °F 60.1 °F 31% 29.80 in 10.0 mi ESE 9.2 mph - N/A   Partly Cloudy
6:53 PM 93.9 °F 93.6 °F 60.1 °F 32% 29.80 in 10.0 mi SSE 3.5 mph - N/A   Partly Cloudy
7:53 PM 91.9 °F 91.8 °F 61.0 °F 35% 29.81 in 10.0 mi ESE 6.9 mph - N/A   Partly Cloudy
8:53 PM 90.0 °F 90.3 °F 62.1 °F 39% 29.82 in 10.0 mi East 8.1 mph - N/A   Scattered Clouds
9:53 PM 88.0 °F 89.3 °F 64.0 °F 45% 29.84 in 10.0 mi ESE 9.2 mph - N/A   Mostly Cloudy
10:53 PM 87.1 °F 88.9 °F 64.9 °F 48% 29.86 in 10.0 mi SE 10.4 mph - N/A   Clear
11:53 PM 84.9 °F 88.2 °F 68.0 °F 57% 29.88 in 10.0 mi SSE 13.8 mph 19.6 mph N/A   Mostly Cloudy